Zurück zum Katalog

STARLINK-34032

AktivKommunikationVLEO
NORAD 63853·PAYLOAD·🇺🇸 United States

Gestartet May 7, 2025 von Cape Canaveral Space Force Station

Loading…

Nächste Überflüge (nächste 24 Stunden)

TLE

AktuellSource: CelesTrak SupGP

Epoche: Sep 14, 2026, 22:36 UTC

1 63853C 25093T   26257.94215278  .00057184  00000+0  20710-2 0  2577
2 63853  43.0027  88.9280 0001020 292.8392 214.5905 15.27554193    15

Verfolge STARLINK-34032 in Echtzeit mit AllMySat

Download on the App Store